DW8016 Weather Reports


time (UTC)temp
C
wind
direction
speed
KPH
gust
KPH
rain 1hr
cm
rain 24hr
cm
rain mn
cm
humidity
%
barometer
mb
20260904222845 27 263 0.0 1.6 0.00 2.36 0.23 80 1011.4
20260904221854 27 263 0.0 0.0 0.00 2.36 0.23 80 1011.3
20260904220831 27 263 0.0 1.6 0.00 2.36 0.23 80 1011.6
20260904215818 27 263 0.0 0.0 0.00 2.36 0.23 81 1011.6
20260904214808 27 263 0.0 0.0 0.00 2.36 0.23 80 1011.7
20260904213821 27 263 0.0 0.0 0.00 2.36 0.23 79 1011.8
20260904212800 27 263 0.0 0.0 0.00 2.36 0.23 78 1011.8
20260904211821 28 277 1.6 11.3 0.00 2.36 0.23 79 1012.1
20260904210750 28 291 0.0 4.8 0.00 2.36 0.23 80 1012.2
20260904205748 29 5 0.0 0.0 0.00 2.36 0.23 78 1012.3
20260904204742 30 5 0.0 0.0 0.00 2.36 0.23 75 1012.1
20260904203727 30 5 0.0 0.0 0.00 2.36 0.23 69 1012.2
20260904202713 30 5 0.0 0.0 0.00 2.36 0.23 67 1012.4
20260904201710 31 5 0.0 0.0 0.00 2.36 0.23 66 1012.3
20260904200709 31 5 0.0 1.6 0.00 2.36 0.23 64 1012.3
20260904195710 31 5 0.0 1.6 0.00 2.36 0.23 64 1011.9
20260904193617 31 5 0.0 0.0 0.00 2.36 0.23 62 1011.9
20260904192613 31 5 0.0 6.4 0.00 2.36 0.23 61 1012.0
20260904191550 32 19 0.0 4.8 0.00 2.36 0.23 58 1011.9
20260904190533 33 146 0.0 3.2 0.00 2.36 0.23 58 1012.0
20260904185515 32 143 0.0 1.6 0.00 2.36 0.23 59 1012.2
20260904184513 32 350 0.0 4.8 0.00 2.36 0.23 57 1012.6
20260904183513 33 167 0.0 6.4 0.00 2.36 0.23 57 1012.8
20260904182515 33 349 0.0 8.0 0.00 2.36 0.23 55 1012.9
20260904181534 33 311 0.0 8.0 0.00 2.36 0.23 52 1012.9
20260904180512 33 243 0.0 1.6 0.00 2.36 0.23 53 1013.0
20260904175500 33 245 1.6 6.4 0.00 2.36 0.23 53 1013.0
20260904174444 32 320 0.0 6.4 0.00 2.36 0.23 55 1013.1
20260904172402 33 258 1.6 8.0 0.00 2.36 0.23 54 1013.3
20260904171330 32 346 0.0 8.0 0.00 2.36 0.23 57 1013.4
20260904170256 32 349 1.6 8.0 0.00 2.36 0.23 57 1013.3
20260904164130 32 337 0.0 4.8 0.00 2.36 0.23 59 1013.6
20260904163118 32 28 1.6 9.7 0.00 2.36 0.23 58 1013.7
20260904162134 32 302 1.6 9.7 0.00 2.36 0.23 58 1013.9
20260904161102 31 339 0.0 6.4 0.00 2.36 0.23 62 1014.0
20260904160108 31 313 0.0 9.7 0.00 2.36 0.23 63 1013.9
20260904155108 32 307 3.2 9.7 0.00 2.36 0.23 59 1014.0
20260904154041 31 338 0.0 9.7 0.00 2.36 0.23 64 1013.9
20260904153032 29 355 1.6 8.0 0.00 2.36 0.23 69 1013.9
20260904150841 30 314 1.6 6.4 0.00 2.36 0.23 65 1014.1
20260904145829 30 314 1.6 8.0 0.00 2.36 0.23 65 1014.2
20260904144756 28 335 1.6 8.0 0.00 2.36 0.23 70 1014.4
20260904142608 29 306 0.0 4.8 0.00 2.36 0.23 70 1014.3
20260904105332 22 343 0.0 0.0 0.00 2.36 0.23 94 1013.8
20260904104326 22 343 0.0 0.0 0.00 2.36 0.23 95 1013.9
20260904103346 22 343 0.0 0.0 0.00 2.36 0.23 95 1014.0
20260904102331 22 343 0.0 0.0 0.00 2.36 0.23 95 1013.6
20260904101314 22 343 0.0 0.0 0.00 2.36 0.23 95 1013.8
20260904100338 22 343 0.0 3.2 0.00 2.36 0.23 94 1013.8
20260904095352 22 340 0.0 4.8 0.00 2.36 0.23 95 1013.5
20260904094347 22 215 0.0 0.0 0.00 2.36 0.23 94 1012.8
20260904093317 22 215 0.0 0.0 0.00 2.36 0.23 94 1012.7
20260904092248 22 208 0.0 0.0 0.00 2.36 0.23 94 1012.4
20260904091214 22 208 0.0 0.0 0.00 2.36 0.23 94 1012.6
20260904090226 22 208 0.0 0.0 0.00 2.36 0.23 94 1012.7
20260904084046 22 208 0.0 0.0 0.00 2.36 0.23 94 1012.8
20260904083103 22 208 0.0 0.0 0.00 2.36 0.23 94 1012.9
20260904082032 22 208 0.0 0.0 0.00 2.36 0.23 94 1013.0
20260904081005 22 208 0.0 0.0 0.00 2.36 0.23 94 1012.9
20260904075949 22 208 0.0 0.0 0.00 2.36 0.23 94 1013.0
20260904074934 22 208 0.0 0.0 0.00 2.36 0.23 94 1013.1
20260904073911 22 208 0.0 0.0 0.00 2.36 0.23 94 1013.2
20260904064232 22 270 0.0 0.0 0.00 2.36 0.23 94 1012.8
20260904063235 22 270 0.0 0.0 0.00 2.36 0.23 94 1012.6
20260904062219 22 270 0.0 0.0 0.00 2.36 0.23 93 1012.7
20260904061236 22 270 0.0 0.0 0.00 2.36 0.23 93 1012.5
20260904060249 22 270 0.0 0.0 0.00 2.36 0.23 93 1012.3
20260904055248 22 270 0.0 0.0 0.00 2.36 0.23 93 1012.1
20260904054240 22 270 0.0 0.0 0.00 2.36 0.23 93 1012.6
20260904052101 22 269 1.6 6.4 0.00 2.34 0.20 93 1013.2
20260904051028 22 202 0.0 4.8 0.00 2.31 0.15 93 1013.1
20260904045954 22 196 0.0 1.6 0.00 2.31 0.15 93 1013.3
20260904045013 22 196 0.0 0.0 0.00 2.31 0.15 93 1013.8
20260904043946 22 196 0.0 0.0 0.00 2.31 0.15 92 1014.7
20260904042922 22 168 0.0 3.2 0.13 2.31 0.15 92 1015.4
20260904041848 22 49 0.0 0.0 0.43 2.31 0.15 91 1015.5
20260904035645 22 59 0.0 54.7 3.12 1.98 2.03 88 1016.0
20260904033523 28 283 0.0 4.8 0.00 0.00 0.00 81 1014.5
20260904032541 28 290 0.0 4.8 0.00 0.00 0.00 81 1013.3
20260904031539 28 238 0.0 1.6 0.00 0.00 0.00 80 1012.8
20260904030506 28 186 0.0 0.0 0.00 0.00 0.00 81 1012.7
20260904025500 28 186 0.0 0.0 0.00 0.00 0.00 81 1013.0
20260904024508 28 186 0.0 0.0 0.00 0.00 0.00 80 1013.1
20260904023442 28 186 0.0 0.0 0.00 0.00 0.00 80 1013.4
20260904022417 28 186 0.0 0.0 0.00 0.00 0.00 79 1013.4
20260904021440 28 186 0.0 0.0 0.00 0.00 0.00 79 1013.2
20260904020441 28 186 0.0 0.0 0.00 0.00 0.00 78 1013.4
20260904015421 29 186 0.0 0.0 0.00 0.00 0.00 78 1013.4
20260904014353 29 193 0.0 4.8 0.00 0.00 0.00 77 1013.3
20260904013346 29 242 0.0 4.8 0.00 0.00 0.00 77 1013.4
20260904012357 29 225 0.0 0.0 0.00 0.00 0.00 77 1013.4
20260904011417 29 209 0.0 1.6 0.00 0.00 0.00 76 1013.2
20260904010403 29 226 0.0 6.4 0.00 0.00 0.00 75 1013.3
20260904004229 30 244 0.0 1.6 0.00 0.00 0.00 74 1013.6
20260904003222 30 254 0.0 4.8 0.00 0.00 0.00 73 1013.9
20260903235954 30 273 0.0 6.4 0.00 0.00 0.00 72 1013.9
20260903235017 30 227 0.0 0.0 0.00 0.00 0.00 71 1013.8
20260903233947 31 205 0.0 4.8 0.00 0.00 0.00 71 1013.4
20260903232914 31 247 0.0 8.0 0.00 0.00 0.00 70 1013.2
20260903231932 31 219 1.6 8.0 0.00 0.00 0.00 69 1013.1
20260903230926 31 248 0.0 12.9 0.00 0.00 0.00 68 1013.2
20260903225853 31 273 0.0 12.9 0.00 0.00 0.00 67 1013.2
20260903224830 32 188 0.0 8.0 0.00 0.00 0.00 66 1013.0